Regional Weather Roundup
Issued by NWS

Home | Current Version | Previous Version | Graphics & Text | Print | Product List | Glossary On
Versions: 1 2 3 4 5 6 7 8 9 10 11 12 13 14 15 16 17 18 19 20 21 22 23 24 25 26 27 28 29 30 31 32 33 34 35 36 37 38 39 40 41 42 43 44 45 46 47 48 49 50
000
ASUS45 KPSR 221710
RWRAZ

ARIZONA REGIONAL HOURLY WEATHER ROUNDUP
NATIONAL WEATHER SERVICE PHOENIX AZ
1000 AM MST FRI AUG 22 2014

NOTE: FAIR INDICATES FEW OR NO CLOUDS BELOW 12,000 FEET WITH NO
SIGNIFICANT WEATHER AND/OR OBSTRUCTIONS TO VISIBILITY.

AZZ001>003-036-221800-
NORTHWEST ARIZONA

CITY           SKY/WX    TMP DP  RH WIND       PRES   REMARKS
BULLHEAD CITY  SUNNY     82  57  42 SW3       29.96F
KINGMAN        SUNNY     75  58  55 E5        30.08F
$$

AZZ004>008-015-016-018-221800-
NORTH CENTRAL ARIZONA

CITY           SKY/WX    TMP DP  RH WIND       PRES   REMARKS
GRAND CANYON   PTSUNNY   61  50  67 SW12      30.26S
WILLIAMS       MOSUNNY   64  48  55 SW8       30.33R
PRESCOTT       MOSUNNY   70  51  51 SE5       30.19S
FLAGSTAFF      CLOUDY    59  51  75 SW9       30.29S
PAYSON         PTSUNNY   70  55  60 W9        30.22S
PAGE           PTSUNNY   72  57  59 VRB3      30.11F
$$

AZZ009>014-017-221800-
NORTHEAST ARIZONA

CITY           SKY/WX    TMP DP  RH WIND       PRES   REMARKS
WINSLOW        SUNNY     73  51  46 VRB5      30.18S
SAINT JOHNS    MOSUNNY   70  55  59 CALM      30.21S
SHOW LOW       SUNNY     64  48  55 W3        30.28S
$$

AZZ023-221800-
GREATER PHOENIX AREA

CITY           SKY/WX    TMP DP  RH WIND       PRES   REMARKS
PHOENIX        PTSUNNY   80  66  62 VRB3      29.98S
BUCKEYE          N/A     79  68  69 SE10      29.99S
GLENDALE       PTSUNNY   79  68  69 CALM      30.00S
LUKE AFB       NOT AVBL
DEER VALLEY    PTSUNNY   77  65  66 CALM      30.00S
SCOTTSDALE     SUNNY     79  64  60 VRB3      30.02R
MESA-FALCON    PTSUNNY   79  63  57 CALM      29.99S
MESA-GATEWAY   MOSUNNY   97  64  34 CALM      30.02S
CHANDLER       PTSUNNY   77  64  65 CALM      30.00S
$$

AZZ027-028-221800-
SOUTHWEST MARICOPA COUNTY AND PINAL COUNTY

CITY           SKY/WX    TMP DP  RH WIND       PRES   REMARKS
CASA GRANDE    MOSUNNY   79  63  57 CALM      30.01S
GILA BEND      PTSUNNY   79  66  65 CALM      29.86F
$$

AZZ503-504-507>509-221800-
SOUTHEAST ARIZONA

CITY           SKY/WX    TMP DP  RH WIND       PRES   REMARKS
TUCSON         MOSUNNY   81  59  47 S5        30.08S
DAVIS-MONTHAN  MOSUNNY   82  59  45 SE2       30.06S
RYAN FIELD       N/A     81  63  54 E3        30.07S
NOGALES        SUNNY     76  58  53 CALM      30.14S
SIERRA VISTA   MOSUNNY   75  57  53 SE3       30.19S
DOUGLAS        SUNNY     75  61  61 W5        30.15S
SAFFORD        SUNNY     81  58  45 W6        30.07S
$$

AZZ020-021-025-026-031-221800-
SOUTHWEST ARIZONA

CITY           SKY/WX    TMP DP  RH WIND       PRES   REMARKS
YUMA           MOSUNNY   83  64  52 N7        29.94S
$$

CAZ031-033-041-043-047-048-061-221800-
SOUTHERN CALIFORNIA

CITY           SKY/WX    TMP DP  RH WIND       PRES   REMARKS
DOWNTOWN L.A.  PTSUNNY   77  64  64 CALM      29.97R
L.A. AIRPORT   PTSUNNY   72  63  73 W7        29.99R
SAN DIEGO      MOSUNNY   74  64  71 W3        29.98S
BURBANK        SUNNY     74  59  59 SE6       29.98R
ONTARIO        SUNNY     78  61  55 SW6       29.98R
RIVERSIDE      SUNNY     76  62  62 VRB3      29.98S
PALM SPRINGS   SUNNY     82  63  52 SE5       29.97S
EL CENTRO NAS  SUNNY     80  65  59 CALM      29.94R
IMPERIAL       SUNNY     79  66  64 VRB3      29.94R
BLYTHE         SUNNY     78  65  63 CALM      29.96S
NEEDLES        SUNNY     83  57  41 CALM      29.96F
$$

NVZ020-UTZ003-221800-
SOUTHERN NEVADA-UTAH

CITY           SKY/WX    TMP DP  RH WIND       PRES   REMARKS
LAS VEGAS      SUNNY     81  53  37 VRB3      29.96S
SALT LAKE CITY PTSUNNY   75  46  35 S15       29.98F
$$

NMZ009-TXZ055-221800-
NEW MEXICO-WEST TEXAS

CITY           SKY/WX    TMP DP  RH WIND       PRES   REMARKS
ALBUQUERQUE    LGT RAIN  62  58  86 NW8       30.23F
EL PASO        CLOUDY    72  61  68 CALM      30.15R
$$


........................KEY........................
SKY/WX - SKY CONDITION/WEATHER
TMP    - TEMPERATURE IN FAHRENHEIT
DP     - DEW POINT IN FAHRENHEIT
RH     - RELATIVE HUMIDITY IN PERCENT
WIND   - DIRECTION AND SPEED IN MILES PER HOUR (MPH)
VRB    - VARIABLE WIND DIRECTION
PRES   - MEAN SEA LEVEL PRESSURE IN INCHES OF MERCURY
         F - FALLING PRESSURE   R - RISING PRESSURE
         S - STEADY PRESSURE
VSB    - VISIBILITY IN MILES
HX     - HEAT INDEX IN FAHRENHEIT
WCI    - WIND CHILL INDEX IN FAHRENHEIT
TC     - TEMPERATURE IN CELSIUS WHICH IS ALSO KNOWN AS
         TEMPERATURE IN CENTIGRADE
AFB    - AIR FORCE BASE
         LUKE AFB IS LUKE AIR FORCE BASE
         DAVIS-MONTHAN IS DAVIS-MONTHAN AIR FORCE BASE
NAS    - NAVAL AIR STATION
         EL CENTRO NAS IS EL CENTRO NAVAL AIR STATION
N/A    - NOT AVAILABLE



USA.gov is the U.S. government's official web portal to all federal, state and local government web resources and services.